Location: Newark
(35.2672°N, 80.7344°W)
Time: 18:58:45
(UTC+00:00)

Vanguard 1 - All Passes

Search period start: 27 January 2020 00:00
Search period end: 06 February 2020 00:00
Orbit: 650 x 3833 km, 34.2° (Epoch: 27 January)

Date Brightness Start Highest point End Pass type
(mag) Time Alt. Az. Time Alt. Az. Time Alt. Az.
27 Jan - 00:35:06 10° W 00:39:46 72° S 00:46:47 10° ESE visible
27 Jan - 02:54:42 10° W 03:00:23 36° SSW 03:09:45 10° SE visible
27 Jan - 05:18:07 10° SW 05:22:33 13° SSW 05:28:05 10° S night (unlit)
27 Jan - 20:16:00 10° SW 20:20:59 33° SSE 20:25:00 10° E daylight
27 Jan - 22:36:16 10° W 22:40:44 78° S 22:45:41 10° E daylight
28 Jan - 00:56:01 10° W 01:00:43 61° SSW 01:07:57 10° ESE visible
28 Jan - 03:16:01 10° W 03:21:31 27° SSW 03:30:03 10° SSE visible
28 Jan - 18:17:46 10° S 18:21:35 15° SSE 18:24:39 10° ESE daylight
28 Jan - 20:36:40 10° SW 20:41:53 45° SSE 20:46:05 10° E daylight
28 Jan - 22:57:15 10° W 23:01:39 81° S 23:06:47 10° E daylight
29 Jan - 01:16:57 10° W 01:21:41 48° SSW 01:28:59 10° SE visible
29 Jan - 03:37:45 10° WSW 03:42:43 20° SSW 03:49:45 10° SSE night (unlit)
29 Jan - 18:37:11 10° SSW 18:42:39 22° SSE 18:46:39 10° ESE daylight
29 Jan - 20:57:33 10° WSW 21:02:46 59° SSE 21:07:06 10° E daylight
29 Jan - 23:18:12 10° W 23:22:35 77° S 23:27:54 10° E visible
30 Jan - 01:37:59 10° W 01:42:40 37° SSW 01:49:46 10° SE visible
30 Jan - 04:00:25 10° SW 04:03:57 13° SSW 04:08:19 10° S night (unlit)
30 Jan - 18:57:22 10° SW 19:03:40 30° SSE 19:08:03 10° E daylight
30 Jan - 21:18:34 10° WSW 21:23:42 71° S 21:28:05 10° E daylight
30 Jan - 23:39:10 10° W 23:43:31 66° S 23:48:59 10° ESE visible
31 Jan - 01:59:12 10° W 02:03:42 27° SSW 02:10:14 10° SSE visible
31 Jan - 16:58:39 10° S 17:03:39 15° SSE 17:07:31 10° ESE daylight
31 Jan - 19:17:57 10° SW 19:24:39 40° SSE 19:29:11 10° E daylight
31 Jan - 21:39:38 10° W 21:44:37 79° S 21:49:04 10° E daylight
01 Feb - 00:00:08 10° W 00:04:26 53° SSW 00:09:59 10° ESE visible
01 Feb - 02:20:46 10° WSW 02:24:45 19° SSW 02:30:10 10° SSE visible
01 Feb - 17:17:45 10° SSW 17:24:50 22° SSE 17:29:44 10° ESE daylight
01 Feb - 19:38:49 10° WSW 19:45:36 53° SSE 19:50:11 10° E daylight
01 Feb - 22:00:43 10° W 22:05:33 80° S 22:10:03 10° E daylight
02 Feb - 00:21:09 10° W 00:25:21 40° SSW 00:30:49 10° SE visible
02 Feb - 02:43:09 10° SW 02:45:52 13° SSW 02:49:08 10° S visible
02 Feb - 17:37:43 10° SSW 17:45:59 29° SSE 17:51:16 10° E daylight
02 Feb - 19:59:53 10° WSW 20:06:33 65° SSE 20:11:07 10° E daylight
02 Feb - 22:21:47 10° W 22:26:29 74° S 22:31:02 10° ESE daylight
03 Feb - 00:42:18 10° W 00:46:15 29° SSW 00:51:22 10° SE visible
03 Feb - 15:38:49 10° S 15:45:13 15° SSE 15:50:06 10° ESE daylight
03 Feb - 17:58:11 10° SW 18:07:04 39° SSE 18:12:29 10° E daylight
03 Feb - 20:21:04 10° WSW 20:27:30 76° S 20:32:01 10° E daylight
03 Feb - 22:42:50 10° W 22:47:23 62° SSW 22:51:58 10° ESE daylight
04 Feb - 01:03:43 10° WSW 01:07:12 20° SSW 01:11:31 10° SSE visible
04 Feb - 15:57:30 10° SSW 16:06:32 22° SSE 16:12:38 10° ESE daylight
04 Feb - 18:19:00 10° SW 18:28:07 49° SSE 18:33:31 10° E daylight
04 Feb - 20:42:17 10° W 20:48:27 81° S 20:52:55 10° E daylight
04 Feb - 23:03:54 10° W 23:08:15 47° SSW 23:12:48 10° ESE daylight
05 Feb - 01:25:49 10° SW 01:28:10 13° SSW 01:30:50 10° S visible
05 Feb - 16:17:10 10° SSW 16:27:47 29° SSE 16:34:22 10° E daylight
05 Feb - 18:40:05 10° WSW 18:49:07 61° SSE 18:54:27 10° E daylight
05 Feb - 21:03:31 10° W 21:09:24 80° S 21:13:50 10° E daylight
05 Feb - 23:25:01 10° W 23:29:05 34° SSW 23:33:27 10° SE visible
